IBE237 SVMI-TJSJ

Flight info

Callsign IBE237
Flight time 1h 14m
Altitude 37000
Route MIDUR DCT TOSOS DCT SILVA DCT ARMUR JOSHE3
Aircraft A21N/M-SDE2E3FGHIRWXY/LB1

Departure

Time 2026-04-27 15:40
Airport Maiquetía Simón Bolívar International Airport (SVMI)

Arrival

Time 2026-04-27 16:54
Airport Luis Munoz Marin International Airport (TJSJ)
Time Latitude Longitude Altitude Speed Heading
2026-04-27 15:04 10.59806 -67.00978 216 ft 0 kts 179°
2026-04-27 15:05 10.59805 -67.00978 216 ft 0 kts 179°
2026-04-27 15:11 10.59806 -67.00978 216 ft 0 kts 179°
2026-04-27 15:15 10.59805 -67.00978 216 ft 0 kts 179°
2026-04-27 15:20 10.59806 -67.00978 216 ft 0 kts 179°
2026-04-27 15:21 10.59805 -67.00978 216 ft 0 kts 179°
2026-04-27 15:22 10.59806 -67.00978 216 ft 0 kts 179°
2026-04-27 15:31 10.59819 -67.00978 216 ft 3 kts 179°
2026-04-27 15:32 10.59839 -67.00978 216 ft 3 kts 179°
2026-04-27 15:32 10.59860 -67.00978 219 ft 3 kts 179°
2026-04-27 15:32 10.59876 -67.00979 219 ft 3 kts 185°
2026-04-27 15:32 10.59893 -67.00974 217 ft 3 kts 225°
2026-04-27 15:33 10.59901 -67.00959 218 ft 3 kts 262°
2026-04-27 15:33 10.59902 -67.00944 216 ft 1 kts 268°
2026-04-27 15:33 10.59902 -67.00940 216 ft 0 kts 268°
2026-04-27 15:35 10.59902 -67.00949 216 ft 1 kts 268°
2026-04-27 15:36 10.59901 -67.00963 218 ft 4 kts 268°
2026-04-27 15:36 10.59900 -67.01008 218 ft 9 kts 267°
2026-04-27 15:36 10.59896 -67.01084 220 ft 13 kts 268°
2026-04-27 15:36 10.59892 -67.01187 222 ft 15 kts 268°
2026-04-27 15:37 10.59915 -67.01237 223 ft 9 kts 340°
2026-04-27 15:37 10.59991 -67.01249 224 ft 13 kts 354°
2026-04-27 15:37 10.60091 -67.01258 225 ft 16 kts 360°
2026-04-27 15:37 10.60207 -67.01258 225 ft 18 kts 358°
2026-04-27 15:38 10.60320 -67.01262 225 ft 13 kts 358°
2026-04-27 15:38 10.60375 -67.01247 227 ft 10 kts 68°
2026-04-27 15:38 10.60378 -67.01222 225 ft 0 kts 87°
2026-04-27 15:39 10.60384 -67.01059 222 ft 65 kts 89°
2026-04-27 15:39 10.60414 -67.00308 215 ft 143 kts 88°
2026-04-27 15:39 10.60457 -66.99108 240 ft 193 kts 90°
2026-04-27 15:40 10.60455 -66.97744 1023 ft 182 kts 89°
2026-04-27 15:40 10.60607 -66.96482 2009 ft 184 kts 77°
2026-04-27 15:40 10.60926 -66.95147 2778 ft 204 kts 78°
2026-04-27 15:40 10.61222 -66.93698 3574 ft 218 kts 77°
2026-04-27 15:41 10.61814 -66.92177 4116 ft 246 kts 59°
2026-04-27 15:41 10.63073 -66.90889 4876 ft 269 kts 34°
2026-04-27 15:41 10.64873 -66.90247 5817 ft 280 kts
2026-04-27 15:41 10.66837 -66.90156 6754 ft 291 kts
2026-04-27 15:42 10.68908 -66.90130 7254 ft 300 kts
2026-04-27 15:42 10.70995 -66.90088 7741 ft 296 kts
2026-04-27 15:42 10.73046 -66.90031 8724 ft 301 kts
2026-04-27 15:42 10.75164 -66.89960 9762 ft 305 kts
2026-04-27 15:43 10.77313 -66.89881 10660 ft 314 kts
2026-04-27 15:43 10.79527 -66.89798 11317 ft 329 kts
2026-04-27 15:43 10.81878 -66.89711 12005 ft 342 kts
2026-04-27 15:43 10.84293 -66.89629 12852 ft 349 kts
2026-04-27 15:44 10.86712 -66.89609 13744 ft 355 kts
2026-04-27 15:44 10.89203 -66.89609 14550 ft 359 kts
2026-04-27 15:44 10.91728 -66.89610 15359 ft 363 kts
2026-04-27 15:44 10.94276 -66.89603 16167 ft 367 kts
2026-04-27 15:45 10.96823 -66.89591 16951 ft 371 kts
2026-04-27 15:45 10.99421 -66.89581 17739 ft 375 kts
2026-04-27 15:45 11.02050 -66.89571 18478 ft 379 kts 360°
2026-04-27 15:45 11.04706 -66.89569 19127 ft 383 kts 360°
2026-04-27 15:46 11.07354 -66.89565 19767 ft 387 kts
2026-04-27 15:46 11.10069 -66.89557 20418 ft 390 kts
2026-04-27 15:46 11.12813 -66.89552 21061 ft 395 kts 360°
2026-04-27 15:46 11.15572 -66.89548 21700 ft 399 kts 360°
2026-04-27 15:47 11.18337 -66.89539 22301 ft 403 kts 360°
2026-04-27 15:47 11.21158 -66.89529 22955 ft 406 kts 360°
2026-04-27 15:47 11.24011 -66.89521 23572 ft 410 kts 359°
2026-04-27 15:47 11.26890 -66.89519 24069 ft 414 kts 359°
2026-04-27 15:48 11.29750 -66.89514 24594 ft 417 kts 360°
2026-04-27 15:48 11.32672 -66.89504 25114 ft 420 kts 360°
2026-04-27 15:48 11.35603 -66.89495 25657 ft 422 kts 360°
2026-04-27 15:49 11.41547 -66.89477 26653 ft 429 kts 360°
2026-04-27 15:49 11.44510 -66.89469 27130 ft 432 kts 359°
2026-04-27 15:49 11.47536 -66.89462 27629 ft 434 kts 360°
2026-04-27 15:49 11.50565 -66.89451 28101 ft 437 kts 359°
2026-04-27 15:50 11.53596 -66.89441 28557 ft 440 kts 359°
2026-04-27 15:50 11.56664 -66.89431 29020 ft 443 kts 359°
2026-04-27 15:50 11.59777 -66.89422 29430 ft 446 kts 360°
2026-04-27 15:50 11.62910 -66.89411 29878 ft 449 kts 359°
2026-04-27 15:51 11.66012 -66.89404 30255 ft 452 kts 360°
2026-04-27 15:51 11.69173 -66.89399 30629 ft 455 kts 360°
2026-04-27 15:51 11.72365 -66.89394 30961 ft 458 kts 360°
2026-04-27 15:51 11.75536 -66.89384 31330 ft 461 kts
2026-04-27 15:52 11.78765 -66.89323 31656 ft 464 kts
2026-04-27 15:52 11.82000 -66.89077 32040 ft 466 kts
2026-04-27 15:52 11.85248 -66.88808 32441 ft 468 kts
2026-04-27 15:52 11.88454 -66.88540 32944 ft 466 kts
2026-04-27 15:53 11.91696 -66.88271 33428 ft 465 kts
2026-04-27 15:53 11.94929 -66.88003 33915 ft 464 kts
2026-04-27 15:53 11.98138 -66.87738 34309 ft 463 kts
2026-04-27 15:53 12.01311 -66.87476 34706 ft 462 kts
2026-04-27 15:54 12.04517 -66.87211 35093 ft 461 kts
2026-04-27 15:54 12.07708 -66.86947 35513 ft 459 kts
2026-04-27 15:54 12.10887 -66.86685 35900 ft 457 kts
2026-04-27 15:54 12.14050 -66.86425 36287 ft 455 kts
2026-04-27 15:55 12.17219 -66.86165 36643 ft 455 kts
2026-04-27 15:55 12.19308 -66.85993 36884 ft 453 kts
2026-04-27 15:55 12.23489 -66.85648 37384 ft 451 kts
2026-04-27 15:55 12.26591 -66.85390 37736 ft 450 kts
2026-04-27 15:56 12.29717 -66.85131 38080 ft 448 kts
2026-04-27 15:56 12.32796 -66.84876 38440 ft 448 kts
2026-04-27 15:56 12.35908 -66.84619 38538 ft 447 kts
2026-04-27 15:57 12.42110 -66.84107 38525 ft 445 kts
2026-04-27 15:57 12.48278 -66.83596 38523 ft 446 kts
2026-04-27 15:58 12.54445 -66.83087 38522 ft 447 kts
2026-04-27 15:58 12.60669 -66.82571 38521 ft 447 kts
2026-04-27 15:59 12.66855 -66.82060 38521 ft 447 kts
2026-04-27 15:59 12.73032 -66.81547 38523 ft 447 kts
2026-04-27 15:59 12.76138 -66.81290 38646 ft 448 kts
2026-04-27 16:00 12.79255 -66.81032 38972 ft 450 kts
2026-04-27 16:00 12.85499 -66.80515 39050 ft 450 kts
2026-04-27 16:01 12.91753 -66.79997 39028 ft 450 kts
2026-04-27 16:01 12.97971 -66.79481 39021 ft 450 kts
2026-04-27 16:02 13.04192 -66.78965 39020 ft 450 kts
2026-04-27 16:02 13.10453 -66.78444 39021 ft 450 kts
2026-04-27 16:03 13.16662 -66.77927 39022 ft 450 kts
2026-04-27 16:03 13.22911 -66.77408 39021 ft 450 kts
2026-04-27 16:04 13.28111 -66.76976 39021 ft 450 kts
2026-04-27 16:04 13.35377 -66.76370 39021 ft 450 kts
2026-04-27 16:05 13.40496 -66.75944 39024 ft 450 kts
2026-04-27 16:05 13.46762 -66.75423 39023 ft 450 kts
2026-04-27 16:06 13.53040 -66.74898 39027 ft 450 kts
2026-04-27 16:06 13.59296 -66.74375 39026 ft 450 kts
2026-04-27 16:07 13.65542 -66.73855 39026 ft 450 kts
2026-04-27 16:07 13.71770 -66.73335 39026 ft 451 kts
2026-04-27 16:08 13.78047 -66.72811 39031 ft 451 kts
2026-04-27 16:08 13.84265 -66.72291 39030 ft 449 kts
2026-04-27 16:09 13.90513 -66.71768 39030 ft 448 kts
2026-04-27 16:09 13.99820 -66.70989 39032 ft 451 kts
2026-04-27 16:10 14.12344 -66.69941 39030 ft 450 kts
2026-04-27 16:11 14.21661 -66.69160 39035 ft 448 kts
2026-04-27 16:12 14.31024 -66.68375 39029 ft 450 kts
2026-04-27 16:13 14.40374 -66.67590 39030 ft 450 kts
2026-04-27 16:13 14.49687 -66.67006 39029 ft 446 kts 358°
2026-04-27 16:14 14.62074 -66.66602 39036 ft 447 kts 358°
2026-04-27 16:15 14.74547 -66.66182 39032 ft 448 kts 358°
2026-04-27 16:16 14.86965 -66.65768 39034 ft 444 kts 358°
2026-04-27 16:17 14.99351 -66.65355 39039 ft 447 kts 358°
2026-04-27 16:18 15.11771 -66.64943 39039 ft 449 kts 358°
2026-04-27 16:19 15.18006 -66.64733 39042 ft 450 kts 358°
2026-04-27 16:20 15.30524 -66.64310 39041 ft 450 kts 358°
2026-04-27 16:21 15.39935 -66.63994 39049 ft 450 kts 358°
2026-04-27 16:22 15.52506 -66.63575 39044 ft 454 kts 358°
2026-04-27 16:22 15.62001 -66.63147 39044 ft 454 kts 359°
2026-04-27 16:23 15.71464 -66.62668 39045 ft 454 kts 359°
2026-04-27 16:24 15.77766 -66.62360 39044 ft 457 kts 359°
2026-04-27 16:25 15.90542 -66.61729 39045 ft 459 kts 359°
2026-04-27 16:26 16.03294 -66.61101 39047 ft 459 kts 359°
2026-04-27 16:27 16.16025 -66.60475 39050 ft 460 kts 359°
2026-04-27 16:28 16.32015 -66.59682 39046 ft 461 kts 359°
2026-04-27 16:29 16.48064 -66.58888 39050 ft 463 kts 359°
2026-04-27 16:30 16.60936 -66.58249 39050 ft 463 kts 359°
2026-04-27 16:31 16.77025 -66.57450 39051 ft 463 kts 359°
2026-04-27 16:32 16.86684 -66.56969 39056 ft 461 kts 358°
2026-04-27 16:33 16.96242 -66.56495 39043 ft 455 kts 358°
2026-04-27 16:33 16.99394 -66.56335 38562 ft 453 kts 358°
2026-04-27 16:33 17.02533 -66.56180 37670 ft 460 kts 358°
2026-04-27 16:34 17.05762 -66.56021 36801 ft 466 kts 358°
2026-04-27 16:34 17.08980 -66.55860 36092 ft 467 kts 358°
2026-04-27 16:34 17.12241 -66.55697 35372 ft 468 kts 358°
2026-04-27 16:34 17.15488 -66.55532 34802 ft 466 kts 358°
2026-04-27 16:35 17.18680 -66.55373 34313 ft 461 kts 358°
2026-04-27 16:35 17.21870 -66.55215 33791 ft 457 kts 358°
2026-04-27 16:35 17.28143 -66.54898 32686 ft 449 kts 359°
2026-04-27 16:36 17.31263 -66.54742 32138 ft 445 kts 359°
2026-04-27 16:36 17.34348 -66.54588 31635 ft 441 kts 359°
2026-04-27 16:36 17.37401 -66.54435 31141 ft 436 kts 359°
2026-04-27 16:36 17.40392 -66.54287 30659 ft 432 kts 359°
2026-04-27 16:37 17.43401 -66.54136 30169 ft 428 kts 359°
2026-04-27 16:37 17.46370 -66.53988 29607 ft 425 kts 359°
2026-04-27 16:37 17.49277 -66.53843 29054 ft 421 kts 359°
2026-04-27 16:37 17.52195 -66.53696 28520 ft 417 kts 360°
2026-04-27 16:38 17.55083 -66.53554 27989 ft 413 kts 360°
2026-04-27 16:38 17.57949 -66.53410 27474 ft 410 kts 360°
2026-04-27 16:38 17.60792 -66.53266 26956 ft 406 kts 360°
2026-04-27 16:38 17.63574 -66.53127 26470 ft 403 kts 360°
2026-04-27 16:39 17.66364 -66.52986 25989 ft 399 kts 359°
2026-04-27 16:39 17.69133 -66.52847 25517 ft 396 kts 359°
2026-04-27 16:39 17.71884 -66.52712 25033 ft 394 kts 359°
2026-04-27 16:39 17.74611 -66.52577 24558 ft 391 kts 359°
2026-04-27 16:40 17.77324 -66.52444 24058 ft 388 kts 359°
2026-04-27 16:40 17.80008 -66.52311 23328 ft 385 kts 359°
2026-04-27 16:40 17.82669 -66.52178 22560 ft 380 kts 359°
2026-04-27 16:40 17.85265 -66.52050 21837 ft 376 kts 360°
2026-04-27 16:41 17.87873 -66.51921 21126 ft 371 kts 360°
2026-04-27 16:41 17.90440 -66.51794 20449 ft 366 kts 360°
2026-04-27 16:41 17.92977 -66.51668 19782 ft 362 kts 360°
2026-04-27 16:41 17.95455 -66.51544 19138 ft 358 kts
2026-04-27 16:42 17.97939 -66.51420 18510 ft 354 kts
2026-04-27 16:42 18.00393 -66.51299 17818 ft 350 kts
2026-04-27 16:42 18.02818 -66.51178 17127 ft 346 kts
2026-04-27 16:42 18.05212 -66.51059 16447 ft 342 kts
2026-04-27 16:43 18.07579 -66.50940 15798 ft 339 kts
2026-04-27 16:43 18.09897 -66.50825 15156 ft 335 kts
2026-04-27 16:43 18.12220 -66.50710 14537 ft 332 kts
2026-04-27 16:43 18.14516 -66.50596 13938 ft 328 kts
2026-04-27 16:44 18.16800 -66.50483 13262 ft 325 kts
2026-04-27 16:44 18.19045 -66.50370 12619 ft 321 kts
2026-04-27 16:44 18.21244 -66.50260 12004 ft 318 kts
2026-04-27 16:44 18.23424 -66.49959 11349 ft 314 kts 18°
2026-04-27 16:45 18.25367 -66.48876 10207 ft 324 kts 42°
2026-04-27 16:45 18.26819 -66.47012 8810 ft 337 kts 61°
2026-04-27 16:45 18.27979 -66.44812 7397 ft 349 kts 63°
2026-04-27 16:45 18.29182 -66.42592 6123 ft 355 kts 60°
2026-04-27 16:46 18.30472 -66.40383 5070 ft 351 kts 59°
2026-04-27 16:46 18.31769 -66.38263 4447 ft 334 kts 58°
2026-04-27 16:46 18.32996 -66.36305 4179 ft 307 kts 58°
2026-04-27 16:46 18.34138 -66.34499 3832 ft 288 kts 58°
2026-04-27 16:47 18.35225 -66.32784 3636 ft 275 kts 58°
2026-04-27 16:47 18.36267 -66.31138 3383 ft 267 kts 58°
2026-04-27 16:47 18.37286 -66.29526 3060 ft 268 kts 57°
2026-04-27 16:47 18.38330 -66.27885 2827 ft 268 kts 57°
2026-04-27 16:48 18.39353 -66.26278 2605 ft 263 kts 57°
2026-04-27 16:48 18.40369 -66.24696 2397 ft 255 kts 58°
2026-04-27 16:48 18.41353 -66.23179 2287 ft 244 kts 57°
2026-04-27 16:49 18.43102 -66.20389 2250 ft 213 kts 64°
2026-04-27 16:49 18.43471 -66.18950 2220 ft 198 kts 88°
2026-04-27 16:49 18.43448 -66.17545 2147 ft 186 kts 92°
2026-04-27 16:49 18.43410 -66.16206 2004 ft 176 kts 92°
2026-04-27 16:50 18.43393 -66.14973 1940 ft 161 kts 91°
2026-04-27 16:50 18.43410 -66.13889 1907 ft 138 kts 89°
2026-04-27 16:50 18.43397 -66.12910 1949 ft 131 kts 91°
2026-04-27 16:50 18.43393 -66.11942 1924 ft 135 kts 90°
2026-04-27 16:51 18.43390 -66.10956 1789 ft 133 kts 90°
2026-04-27 16:51 18.43388 -66.09973 1600 ft 135 kts 89°
2026-04-27 16:51 18.43385 -66.09323 1497 ft 133 kts 90°
2026-04-27 16:51 18.43382 -66.08034 1273 ft 133 kts 89°
2026-04-27 16:52 18.43380 -66.07387 1143 ft 131 kts 90°
2026-04-27 16:52 18.43379 -66.06433 964 ft 131 kts 89°
2026-04-27 16:52 18.43377 -66.05481 818 ft 128 kts 89°
2026-04-27 16:52 18.43374 -66.04543 672 ft 131 kts 88°
2026-04-27 16:53 18.43371 -66.03605 477 ft 123 kts 88°
2026-04-27 16:53 18.43362 -66.02715 306 ft 122 kts 90°
2026-04-27 16:53 18.43348 -66.01826 163 ft 121 kts 88°
2026-04-27 16:53 18.43357 -66.00944 27 ft 121 kts 85°
2026-04-27 16:54 18.43357 -66.00256 23 ft 64 kts 90°
2026-04-27 16:54 18.43354 -65.99887 25 ft 41 kts 93°
2026-04-27 16:54 18.43347 -65.99590 26 ft 41 kts 91°
2026-04-27 16:54 18.43350 -65.99340 24 ft 30 kts 87°
2026-04-27 16:55 18.43355 -65.99174 23 ft 18 kts 89°
2026-04-27 16:55 18.43370 -65.99091 24 ft 12 kts 27°
2026-04-27 16:55 18.43454 -65.99096 25 ft 15 kts 299°
2026-04-27 16:55 18.43463 -65.99217 24 ft 18 kts 271°
2026-04-27 16:56 18.43463 -65.99355 24 ft 17 kts 269°
2026-04-27 16:56 18.43460 -65.99474 27 ft 12 kts 269°
2026-04-27 16:56 18.43461 -65.99570 24 ft 15 kts 273°
2026-04-27 16:56 18.43463 -65.99688 24 ft 18 kts 271°
2026-04-27 16:57 18.43463 -65.99775 24 ft 5 kts 266°
2026-04-27 16:57 18.43462 -65.99788 24 ft 0 kts 266°
2026-04-27 16:58 18.43462 -65.99789 24 ft 1 kts 266°
2026-04-27 16:58 18.43461 -65.99810 24 ft 5 kts 268°
2026-04-27 16:58 18.43460 -65.99857 24 ft 8 kts 272°
2026-04-27 16:58 18.43463 -65.99930 25 ft 12 kts 271°
2026-04-27 16:59 18.43463 -66.00030 25 ft 15 kts 270°
2026-04-27 16:59 18.43464 -66.00149 24 ft 18 kts 270°
2026-04-27 16:59 18.43466 -66.00260 24 ft 14 kts 278°
2026-04-27 16:59 18.43475 -66.00370 24 ft 17 kts 270°
2026-04-27 17:00 18.43474 -66.00555 24 ft 4 kts 270°
2026-04-27 17:00 18.43475 -66.00617 24 ft 9 kts 271°
2026-04-27 17:00 18.43478 -66.00685 16 ft 8 kts 292°
2026-04-27 17:01 18.43526 -66.00699 25 ft 9 kts 360°
2026-04-27 17:01 18.43542 -66.00699 26 ft 0 kts